Find Starlink 36337

NORAD ID: 68717 Int'l Des: 2026-081 Owner: SPXS Country: US Constellation: starlink operational
LEOCIRCULAR

Live Position

Loading 3D Globe...

About Starlink 36337

Description loading...

Upcoming Passes

Passes for default location (London). Set your location on the main map for personalized predictions.

Altitude History

Loading altitude history...

Two-Line Element Set

1 68717C 26081T 26105.41715278 .00623640 00000+0 79982-3 0 1052
2 68717 53.1628 237.8237 0007209 303.2253 209.0080 16.06158968 14
Epoch: Apr 15, 2026 • Age: 16 hours

Current Status

Altitude 260.2 km
Velocity 7.75 km/s
Sub-Earth Point -30.82°S, 20.76°W
Launch Date Apr 14, 2026
Age 1 days
Type internet

Technical Details

Classification Payload
Mass 575.00 kg
Dry Mass 530.00 kg
Total Mass 575.00 kg
Length 0.30 m
Diameter 4.10 m
Span 29.00 m
Shape Box + pan
Manufacturer SPXS
Bus Type Starlink V2MO
Phase Status In Orbit
Owner/State SPXS/US

Most Searched